Home   Weather   Jalpaiguri   Past weeks
Flag for India

Past Weather in Jalpaiguri, West Bengal, India — Yesterday and Last 2 Weeks

Now
75 °F

Light rain. Partly cloudy.


Feels Like: 73 °F
Forecast: 92 / 76 °F
Wind: 2 mph from North

Location: Lucknow / Amausi

Current Time: Sep 20, 2019 at 3:15:52 am

Latest Report: Sep 20, 2019 at 2:30 am


Visibility: 2 mi

Pressure: 29.80 "Hg

Humidity: 100%

Dew Point: 75 °F

Location of JalpaiguriLocation

Past Weather in Jalpaiguri — Graph

°F

Jalpaiguri Temperature Yesterday

Maximum temperature yesterday: 77 °F (at 12:00 am)
Minimum temperature yesterday: 73 °F (at 11:30 am)
Average temperature yesterday: 75 °F

High & Low Weather Summary for the Past Weeks

 TemperatureHumidityPressure
High102 °F (Sep 11, 10:00 am)100% (Sep 5, 8:00 am)29.92 "Hg (Sep 5, 8:00 am)
Low73 °F (Sep 19, 11:30 am)25% (Sep 6, 10:30 pm)29.45 "Hg (Sep 5, 5:30 pm)
Average84 °F89%29.63 "Hg
* Reported Sep 5 1:30 am — Sep 20 1:30 am, Jalpaiguri. Weather by CustomWeather, © 2019

Note: Actual official high and low records may vary slightly from our data, if they occured in-between our weather recording intervals... More about our weather records

Advertising

Jalpaiguri Weather History for the Previous 24 Hours

Scroll right to see more
 ConditionsComfort  
Time TempWeatherWind HumidityBarometerVisibility
1:30 am
Fri, Sep 20
75 °FFog.2 mph94%29.80 "Hg1 mi
1:00 am75 °FFog.No wind94%29.80 "Hg1 mi
12:30 am75 °FFog.2 mph94%29.83 "Hg1 mi
12:00 am75 °FFog.No wind100%29.83 "Hg1 mi
11:30 pm
Thu, Sep 19
75 °FFog.2 mph94%29.83 "Hg1 mi
11:00 pm75 °FFog.No wind100%29.83 "Hg1 mi
10:30 pm75 °FFog.No wind94%29.83 "Hg1 mi
10:00 pm75 °FFog.No wind94%29.83 "Hg1 mi
9:30 pm75 °FFog.2 mph94%29.83 "Hg1 mi
9:00 pm75 °FFog.3 mph100%29.83 "Hg1 mi
8:30 pm75 °FFog.2 mph100%29.83 "Hg1 mi
8:00 pm75 °FFog.2 mph100%29.83 "Hg1 mi
7:30 pm75 °FFog.2 mph100%29.83 "Hg1 mi
7:00 pm75 °FThunderstorms. Overcast.2 mph100%29.80 "Hg1 mi
6:30 pm75 °FThunderstorms. Cloudy.2 mph100%29.80 "Hg1 mi
6:00 pm75 °FThunderstorms. Cloudy.2 mph94%29.80 "Hg1 mi
5:30 pm75 °FThunderstorms. Cloudy.2 mph94%29.77 "Hg1 mi
5:00 pm73 °FThunderstorms. Cloudy.2 mph100%29.77 "Hg1 mi
4:30 pm73 °FThunderstorms. Cloudy.2 mph100%29.80 "Hg1 mi
4:00 pm73 °FThunderstorms. Cloudy.2 mph100%29.80 "Hg1 mi
3:30 pm73 °FThunderstorms. Cloudy.2 mph100%29.80 "Hg1 mi
3:00 pm73 °FThunderstorms. Cloudy.2 mph100%29.80 "Hg1 mi
2:30 pm73 °FThunderstorms. Cloudy.2 mph100%29.83 "Hg1 mi
1:00 pm73 °FThunderstorms. Cloudy.7 mph100%29.86 "Hg1 mi
12:30 pm73 °FThunderstorms. Cloudy.6 mph100%29.89 "Hg1 mi
12:00 pm73 °FThunderstorms. Cloudy.6 mph100%29.89 "Hg1 mi
11:30 am73 °FThunderstorms. Cloudy.6 mph100%29.92 "Hg1 mi
11:00 am75 °FThunderstorms. Cloudy.3 mph100%29.92 "Hg1 mi
10:30 am75 °FThunderstorms. Cloudy.8 mph100%29.92 "Hg1 mi
10:00 am75 °FRain. Cloudy.5 mph94%29.92 "Hg1 mi
9:30 am75 °FLight rain. Cloudy.7 mph94%29.92 "Hg1 mi
8:30 am75 °FLight rain. Cloudy.9 mph94%29.92 "Hg1 mi
8:00 am75 °FLight rain. More clouds than sun.9 mph94%29.89 "Hg2 mi
7:30 am75 °FFog.9 mph94%29.89 "Hg2 mi
7:00 am75 °FFog.8 mph94%29.89 "Hg2 mi
6:30 am75 °FFog.7 mph94%29.86 "Hg2 mi
6:00 am75 °FFog.6 mph94%29.86 "Hg2 mi
5:30 am75 °FFog.5 mph100%29.86 "Hg2 mi
5:00 am75 °FFog.5 mph100%29.83 "Hg2 mi
4:30 am75 °FFog.5 mph100%29.83 "Hg2 mi
4:00 am75 °FFog.5 mph100%29.83 "Hg2 mi
3:30 am75 °FFog.3 mph100%29.83 "Hg2 mi
3:00 am75 °FFog.3 mph100%29.83 "Hg2 mi
Weather by CustomWeather, © 2019

See weather overview